Location: Braunsdorf
(50.7357°N, 11.9136°E)
Time: 17:09:52
(UTC+00:00)

Cosmos 1666 Rocket - Pass Details

Date: 17 February 2020
Orbit: 603 x 634 km, 82.5° (Epoch: 07 April)

Event Time Altitude Azimuth Distance (km) Brightness Sun altitude
Rises 05:43:17 0° 345° (NNW) 2,937 6.8 -6.8°
Reaches altitude 10° 05:45:36 10° 340° (NNW) 2,021 5.9 -6.4°
Maximum altitude 05:49:54 48° 266° (W) 821 3.8 -5.7°
Drops below altitude 10° 05:54:08 10° 193° (SSW) 1,988 6.2 -5.1°
Sets 05:56:24 0° 187° (S) 2,883 7.1 -4.7°
